| time (UTC) | temp F | wind direction | speed MPH | gust MPH | rain 1hr in | rain 24hr in | rain mn in | humidity % | barometer mb |
| 20260505041740 | 59 | 33 | 0.0 | 0.0 | 0.00 | 0.00 | 0.00 | 73 | 1011.9 |
| 20260505041237 | 59 | 41 | 0.0 | 0.0 | 0.00 | 0.00 | 0.00 | 73 | 1011.8 |
| 20260505040734 | 60 | 46 | 0.0 | 0.0 | 0.00 | 0.00 | 0.00 | 73 | 1011.9 |
| 20260505040232 | 60 | 53 | 0.0 | 0.0 | 0.00 | 0.00 | 0.00 | 73 | 1011.9 |
| 20260505035728 | 60 | 54 | 0.0 | 1.0 | 0.00 | 0.00 | 0.00 | 73 | 1011.7 |
| 20260505035224 | 60 | 58 | 0.0 | 0.0 | 0.00 | 0.00 | 0.00 | 74 | 1011.7 |
| 20260505034721 | 61 | 52 | 0.0 | 0.0 | 0.00 | 0.00 | 0.00 | 72 | 1011.9 |
| 20260505034218 | 62 | 15 | 0.0 | 1.0 | 0.00 | 0.00 | 0.00 | 72 | 1011.7 |
| 20260505033714 | 61 | 106 | 1.0 | 1.0 | 0.00 | 0.00 | 0.00 | 71 | 1011.6 |
| 20260505033213 | 61 | 69 | 1.0 | 1.0 | 0.00 | 0.00 | 0.00 | 72 | 1011.6 |
| 20260505032711 | 62 | 44 | 0.0 | 0.0 | 0.00 | 0.00 | 0.00 | 71 | 1011.6 |
| 20260505032206 | 62 | 53 | 0.0 | 0.0 | 0.00 | 0.00 | 0.00 | 71 | 1011.5 |
| 20260505031704 | 62 | 41 | 1.0 | 1.0 | 0.00 | 0.00 | 0.00 | 70 | 1011.7 |
| 20260505031200 | 62 | 47 | 0.0 | 0.0 | 0.00 | 0.00 | 0.00 | 69 | 1011.7 |
| 20260505030657 | 63 | 44 | 1.0 | 1.0 | 0.00 | 0.00 | 0.00 | 68 | 1011.8 |
| 20260505030152 | 63 | 161 | 3.0 | 3.0 | 0.00 | 0.00 | 0.00 | 67 | 1011.7 |
| 20260505025649 | 63 | 112 | 2.0 | 3.0 | 0.00 | 0.00 | 0.00 | 67 | 1011.7 |
| 20260505025147 | 63 | 61 | 1.0 | 1.0 | 0.00 | 0.00 | 0.00 | 66 | 1011.8 |
| 20260505024644 | 63 | 56 | 2.0 | 2.0 | 0.00 | 0.00 | 0.00 | 65 | 1011.8 |
| 20260505024142 | 63 | 107 | 1.0 | 1.0 | 0.00 | 0.00 | 0.00 | 65 | 1011.5 |
| 20260505023639 | 64 | 147 | 1.0 | 1.0 | 0.00 | 0.00 | 0.00 | 62 | 1011.8 |
| 20260505023136 | 64 | 202 | 2.0 | 3.0 | 0.00 | 0.00 | 0.00 | 62 | 1011.6 |
| 20260505022634 | 64 | 64 | 0.0 | 1.0 | 0.00 | 0.00 | 0.00 | 62 | 1011.7 |
| 20260505022131 | 64 | 132 | 1.0 | 1.0 | 0.00 | 0.00 | 0.00 | 63 | 1011.7 |
| 20260505021627 | 64 | 12 | 0.0 | 0.0 | 0.00 | 0.00 | 0.00 | 62 | 1011.5 |
| 20260505021124 | 64 | 35 | 0.0 | 0.0 | 0.00 | 0.00 | 0.00 | 61 | 1011.6 |
| 20260505020619 | 64 | 12 | 0.0 | 0.0 | 0.00 | 0.00 | 0.00 | 62 | 1011.7 |
| 20260505020116 | 64 | 47 | 1.0 | 1.0 | 0.00 | 0.00 | 0.00 | 61 | 1011.6 |
| 20260505015613 | 64 | 76 | 1.0 | 1.0 | 0.00 | 0.00 | 0.00 | 62 | 1011.6 |
| 20260505015110 | 63 | 92 | 0.0 | 1.0 | 0.00 | 0.00 | 0.00 | 64 | 1011.5 |
| 20260505014606 | 64 | 29 | 0.0 | 0.0 | 0.00 | 0.00 | 0.00 | 63 | 1011.4 |
| 20260505014103 | 63 | 47 | 0.0 | 0.0 | 0.00 | 0.00 | 0.00 | 64 | 1011.4 |
| 20260505013601 | 62 | 62 | 0.0 | 1.0 | 0.00 | 0.00 | 0.00 | 67 | 1011.4 |
| 20260505013058 | 62 | 69 | 0.0 | 0.0 | 0.00 | 0.00 | 0.00 | 67 | 1011.6 |
| 20260505012556 | 62 | 53 | 0.0 | 0.0 | 0.00 | 0.00 | 0.00 | 67 | 1011.5 |
| 20260505012053 | 62 | 55 | 0.0 | 0.0 | 0.00 | 0.00 | 0.00 | 67 | 1011.4 |
| 20260505011548 | 62 | 55 | 0.0 | 0.0 | 0.00 | 0.00 | 0.00 | 66 | 1011.4 |
| 20260505011046 | 62 | 49 | 0.0 | 0.0 | 0.00 | 0.00 | 0.00 | 67 | 1011.4 |
| 20260505010541 | 62 | 51 | 0.0 | 0.0 | 0.00 | 0.00 | 0.00 | 68 | 1011.4 |
| 20260505010038 | 62 | 46 | 0.0 | 0.0 | 0.00 | 0.00 | 0.00 | 67 | 1011.3 |
| 20260505005534 | 62 | 41 | 0.0 | 0.0 | 0.00 | 0.00 | 0.00 | 66 | 1011.2 |
| 20260505005032 | 63 | 48 | 0.0 | 0.0 | 0.00 | 0.00 | 0.00 | 65 | 1011.2 |
| 20260505004529 | 63 | 50 | 0.0 | 0.0 | 0.00 | 0.00 | 0.00 | 64 | 1011.1 |
| 20260505004025 | 63 | 51 | 0.0 | 0.0 | 0.00 | 0.00 | 0.00 | 64 | 1011.1 |
| 20260505003523 | 64 | 42 | 0.0 | 0.0 | 0.00 | 0.00 | 0.00 | 63 | 1011.2 |
| 20260505003020 | 63 | 53 | 0.0 | 0.0 | 0.00 | 0.00 | 0.00 | 64 | 1011.2 |
| 20260505002515 | 64 | 44 | 0.0 | 0.0 | 0.00 | 0.00 | 0.00 | 63 | 1011.2 |
| 20260505002014 | 64 | 18 | 0.0 | 0.0 | 0.00 | 0.00 | 0.00 | 62 | 1011.2 |
| 20260505001511 | 65 | 34 | 0.0 | 0.0 | 0.00 | 0.00 | 0.00 | 60 | 1011.2 |
| 20260505001008 | 66 | 52 | 0.0 | 0.0 | 0.00 | 0.00 | 0.00 | 59 | 1011.0 |
| 20260505000505 | 66 | 17 | 0.0 | 1.0 | 0.00 | 0.00 | 0.00 | 58 | 1011.1 |
| 20260505000003 | 66 | 34 | 1.0 | 1.0 | 0.00 | 0.00 | 0.00 | 57 | 1011.1 |
| 20260504235459 | 66 | 61 | 0.0 | 0.0 | 0.00 | 0.00 | 0.00 | 57 | 1011.3 |
| 20260504234956 | 67 | 60 | 1.0 | 1.0 | 0.00 | 0.00 | 0.00 | 55 | 1011.4 |
| 20260504234453 | 67 | 59 | 0.0 | 0.0 | 0.00 | 0.00 | 0.00 | 54 | 1011.2 |
| 20260504233949 | 68 | 60 | 0.0 | 0.0 | 0.00 | 0.00 | 0.00 | 54 | 1011.1 |
| 20260504233445 | 68 | 66 | 1.0 | 2.0 | 0.00 | 0.00 | 0.00 | 51 | 1011.1 |
| 20260504232942 | 68 | 66 | 1.0 | 1.0 | 0.00 | 0.00 | 0.00 | 51 | 1011.0 |
| 20260504232439 | 69 | 86 | 1.0 | 1.0 | 0.00 | 0.00 | 0.00 | 50 | 1011.1 |
| 20260504231937 | 68 | 74 | 1.0 | 2.0 | 0.00 | 0.00 | 0.00 | 50 | 1010.9 |
| 20260504231433 | 69 | 135 | 0.0 | 1.0 | 0.00 | 0.00 | 0.00 | 51 | 1011.1 |
| 20260504230929 | 69 | 60 | 0.0 | 1.0 | 0.00 | 0.00 | 0.00 | 49 | 1011.3 |
| 20260504230426 | 69 | 188 | 3.0 | 4.0 | 0.00 | 0.00 | 0.00 | 47 | 1011.3 |
| 20260504225925 | 69 | 79 | 1.0 | 1.0 | 0.00 | 0.00 | 0.00 | 49 | 1011.0 |
| 20260504225422 | 69 | 108 | 1.0 | 1.0 | 0.00 | 0.00 | 0.00 | 47 | 1011.1 |
| 20260504224919 | 70 | 174 | 4.0 | 4.0 | 0.00 | 0.00 | 0.00 | 47 | 1011.2 |
| 20260504224415 | 70 | 97 | 4.0 | 6.0 | 0.00 | 0.00 | 0.00 | 46 | 1011.0 |
| 20260504223913 | 70 | 159 | 2.0 | 3.0 | 0.00 | 0.00 | 0.00 | 46 | 1011.1 |
| 20260504223408 | 70 | 68 | 0.0 | 1.0 | 0.00 | 0.00 | 0.00 | 46 | 1011.2 |
| 20260504222904 | 71 | 136 | 2.0 | 2.0 | 0.00 | 0.00 | 0.00 | 45 | 1011.1 |
| 20260504222401 | 71 | 50 | 1.0 | 2.0 | 0.00 | 0.00 | 0.00 | 47 | 1011.0 |
| 20260504221900 | 71 | 148 | 5.0 | 7.0 | 0.00 | 0.00 | 0.00 | 43 | 1010.9 |
| 20260504221356 | 71 | 134 | 2.0 | 3.0 | 0.00 | 0.00 | 0.00 | 46 | 1011.1 |
| 20260504220854 | 72 | 205 | 2.0 | 3.0 | 0.00 | 0.00 | 0.00 | 43 | 1010.9 |
| 20260504220350 | 72 | 3 | 1.0 | 2.0 | 0.00 | 0.00 | 0.00 | 43 | 1010.8 |
| 20260504215847 | 72 | 134 | 6.0 | 10.0 | 0.00 | 0.00 | 0.00 | 42 | 1011.0 |
| 20260504215343 | 72 | 173 | 6.0 | 8.0 | 0.00 | 0.00 | 0.00 | 42 | 1011.0 |
| 20260504214840 | 72 | 71 | 1.0 | 1.0 | 0.00 | 0.00 | 0.00 | 44 | 1010.9 |
| 20260504214337 | 72 | 107 | 4.0 | 4.0 | 0.00 | 0.00 | 0.00 | 42 | 1010.9 |
| 20260504213833 | 73 | 178 | 2.0 | 3.0 | 0.00 | 0.00 | 0.00 | 42 | 1010.8 |
| 20260504213329 | 73 | 69 | 0.0 | 1.0 | 0.00 | 0.00 | 0.00 | 42 | 1011.0 |
| 20260504212827 | 73 | 61 | 1.0 | 1.0 | 0.00 | 0.00 | 0.00 | 42 | 1011.0 |
| 20260504212323 | 72 | 37 | 2.0 | 2.0 | 0.00 | 0.00 | 0.00 | 41 | 1011.0 |
| 20260504211821 | 73 | 59 | 0.0 | 1.0 | 0.00 | 0.00 | 0.00 | 43 | 1010.9 |
| 20260504211316 | 73 | 123 | 3.0 | 4.0 | 0.00 | 0.00 | 0.00 | 42 | 1010.9 |
| 20260504210814 | 74 | 169 | 5.0 | 7.0 | 0.00 | 0.00 | 0.00 | 40 | 1011.0 |
| 20260504210311 | 74 | 147 | 2.0 | 2.0 | 0.00 | 0.00 | 0.00 | 42 | 1011.0 |
| 20260504205808 | 74 | 105 | 2.0 | 3.0 | 0.00 | 0.00 | 0.00 | 40 | 1011.0 |
| 20260504205306 | 75 | 120 | 3.0 | 3.0 | 0.00 | 0.00 | 0.00 | 41 | 1011.1 |
| 20260504204804 | 76 | 161 | 3.0 | 3.0 | 0.00 | 0.00 | 0.00 | 41 | 1011.0 |
| 20260504204302 | 76 | 105 | 1.0 | 1.0 | 0.00 | 0.00 | 0.00 | 38 | 1011.1 |
| 20260504203801 | 76 | 29 | 0.0 | 1.0 | 0.00 | 0.00 | 0.00 | 39 | 1010.9 |
| 20260504203258 | 77 | 67 | 0.0 | 1.0 | 0.00 | 0.00 | 0.00 | 39 | 1011.2 |
| 20260504202758 | 77 | 116 | 2.0 | 3.0 | 0.00 | 0.00 | 0.00 | 35 | 1011.3 |
| 20260504202256 | 77 | 155 | 5.0 | 8.0 | 0.00 | 0.00 | 0.00 | 34 | 1011.2 |
| 20260504201752 | 77 | 24 | 1.0 | 2.0 | 0.00 | 0.00 | 0.00 | 37 | 1011.2 |
| 20260504201249 | 76 | 46 | 0.0 | 0.0 | 0.00 | 0.00 | 0.00 | 41 | 1011.2 |
| 20260504200748 | 77 | 341 | 4.0 | 6.0 | 0.00 | 0.00 | 0.00 | 34 | 1011.5 |
| 20260504200243 | 78 | 106 | 2.0 | 3.0 | 0.00 | 0.00 | 0.00 | 36 | 1011.4 |
| 20260504195740 | 77 | 99 | 4.0 | 7.0 | 0.00 | 0.00 | 0.00 | 35 | 1011.5 |
| 20260504195236 | 77 | 328 | 1.0 | 2.0 | 0.00 | 0.00 | 0.00 | 38 | 1011.5 |
| 20260504194733 | 76 | 36 | 1.0 | 2.0 | 0.00 | 0.00 | 0.00 | 37 | 1011.7 |
| 20260504194229 | 76 | 307 | 2.0 | 4.0 | 0.00 | 0.00 | 0.00 | 34 | 1011.6 |
| 20260504193725 | 77 | 94 | 1.0 | 1.0 | 0.00 | 0.00 | 0.00 | 35 | 1011.8 |
| 20260504193223 | 77 | 350 | 4.0 | 4.0 | 0.00 | 0.00 | 0.00 | 35 | 1012.0 |
| 20260504192721 | 77 | 116 | 0.0 | 1.0 | 0.00 | 0.00 | 0.00 | 39 | 1011.9 |
| 20260504192219 | 76 | 25 | 0.0 | 1.0 | 0.00 | 0.00 | 0.00 | 38 | 1012.1 |
| 20260504191717 | 77 | 139 | 3.0 | 3.0 | 0.00 | 0.00 | 0.00 | 35 | 1012.1 |
| 20260504191214 | 77 | 330 | 1.0 | 2.0 | 0.00 | 0.00 | 0.00 | 36 | 1012.1 |
| 20260504190709 | 77 | 35 | 0.0 | 1.0 | 0.00 | 0.00 | 0.00 | 36 | 1012.3 |
| 20260504190206 | 76 | 19 | 1.0 | 1.0 | 0.00 | 0.00 | 0.00 | 39 | 1012.4 |
| 20260504185702 | 76 | 270 | 1.0 | 2.0 | 0.00 | 0.00 | 0.00 | 37 | 1012.4 |
| 20260504185159 | 76 | 55 | 1.0 | 2.0 | 0.00 | 0.00 | 0.00 | 40 | 1012.5 |
| 20260504184655 | 76 | 58 | 1.0 | 2.0 | 0.00 | 0.00 | 0.00 | 34 | 1012.5 |
| 20260504184150 | 76 | 54 | 1.0 | 1.0 | 0.00 | 0.00 | 0.00 | 37 | 1012.6 |
| 20260504183647 | 75 | 133 | 1.0 | 1.0 | 0.00 | 0.00 | 0.00 | 37 | 1012.8 |
| 20260504183145 | 76 | 137 | 4.0 | 4.0 | 0.00 | 0.00 | 0.00 | 37 | 1012.7 |
| 20260504182642 | 77 | 344 | 0.0 | 1.0 | 0.00 | 0.00 | 0.00 | 34 | 1012.8 |
| 20260504182140 | 75 | 35 | 1.0 | 2.0 | 0.00 | 0.00 | 0.00 | 36 | 1012.6 |
| 20260504181637 | 75 | 120 | 1.0 | 2.0 | 0.00 | 0.00 | 0.00 | 36 | 1012.8 |
| 20260504181134 | 75 | 327 | 1.0 | 2.0 | 0.00 | 0.00 | 0.00 | 35 | 1012.9 |
| 20260504180634 | 75 | 65 | 1.0 | 2.0 | 0.00 | 0.00 | 0.00 | 36 | 1012.9 |
| 20260504180132 | 75 | 23 | 1.0 | 1.0 | 0.00 | 0.00 | 0.00 | 36 | 1013.0 |
| 20260504175629 | 75 | 142 | 3.0 | 3.0 | 0.00 | 0.00 | 0.00 | 34 | 1013.2 |
| 20260504175125 | 74 | 30 | 4.0 | 7.0 | 0.00 | 0.00 | 0.00 | 35 | 1013.2 |
| 20260504174624 | 74 | 87 | 0.0 | 1.0 | 0.00 | 0.00 | 0.00 | 33 | 1013.1 |
| 20260504174119 | 75 | 91 | 1.0 | 1.0 | 0.00 | 0.00 | 0.00 | 34 | 1013.2 |
| 20260504173617 | 74 | 0 | 1.0 | 1.0 | 0.00 | 0.00 | 0.00 | 41 | 1013.4 |
| 20260504173115 | 74 | 59 | 5.0 | 8.0 | 0.00 | 0.00 | 0.00 | 34 | 1013.3 |
| 20260504172611 | 74 | 129 | 4.0 | 4.0 | 0.00 | 0.00 | 0.00 | 35 | 1013.5 |
| 20260504172107 | 73 | 21 | 1.0 | 1.0 | 0.00 | 0.00 | 0.00 | 36 | 1013.6 |
| 20260504171603 | 74 | 67 | 0.0 | 1.0 | 0.00 | 0.00 | 0.00 | 39 | 1013.6 |
| 20260504171101 | 73 | 204 | 4.0 | 7.0 | 0.00 | 0.00 | 0.00 | 33 | 1013.6 |
| 20260504170556 | 74 | 355 | 1.0 | 2.0 | 0.00 | 0.00 | 0.00 | 34 | 1013.6 |
| 20260504150940 | 70 | 223 | 4.0 | 6.0 | 0.00 | 0.00 | 0.00 | 37 | 1015.1 |
| 20260504150437 | 69 | 315 | 1.0 | 1.0 | 0.00 | 0.00 | 0.00 | 46 | 1014.9 |
| 20260504140904 | 66 | 23 | 1.0 | 1.0 | 0.00 | 0.00 | 0.00 | 46 | 1015.3 |
| 20260504140359 | 66 | 38 | 0.0 | 0.0 | 0.00 | 0.00 | 0.00 | 50 | 1015.3 |
| 20260504130325 | 60 | 352 | 1.0 | 1.0 | 0.00 | 0.00 | 0.00 | 52 | 1015.5 |
| 20260504120248 | 55 | 146 | 2.0 | 4.0 | 0.00 | 0.00 | 0.00 | 59 | 1015.9 |
| 20260504110715 | 51 | 64 | 0.0 | 0.0 | 0.00 | 0.00 | 0.00 | 69 | 1016.1 |
| 20260504110212 | 51 | 23 | 0.0 | 0.0 | 0.00 | 0.00 | 0.00 | 69 | 1016.1 |
| 20260504100136 | 50 | 4 | 0.0 | 0.0 | 0.00 | 0.00 | 0.00 | 70 | 1016.2 |
| 20260504081529 | 49 | 21 | 0.0 | 0.0 | 0.00 | 0.00 | 0.00 | 69 | 1016.5 |
| 20260504081025 | 48 | 354 | 0.0 | 0.0 | 0.00 | 0.00 | 0.00 | 70 | 1016.5 |
| 20260504080521 | 48 | 21 | 0.0 | 0.0 | 0.00 | 0.00 | 0.00 | 69 | 1016.4 |
| 20260504050334 | 46 | 56 | 0.0 | 0.0 | 0.00 | 0.00 | 0.00 | 67 | 1016.6 |
| 20260504045831 | 45 | 56 | 0.0 | 0.0 | 0.00 | 0.00 | 0.00 | 68 | 1016.7 |
| 20260504045326 | 45 | 57 | 0.0 | 0.0 | 0.00 | 0.00 | 0.00 | 70 | 1016.7 |
| 20260504044823 | 45 | 60 | 0.0 | 1.0 | 0.00 | 0.00 | 0.00 | 71 | 1016.7 |
| 20260504044320 | 45 | 54 | 0.0 | 0.0 | 0.00 | 0.00 | 0.00 | 72 | 1016.8 |
| 20260504043817 | 45 | 63 | 0.0 | 1.0 | 0.00 | 0.00 | 0.00 | 72 | 1016.7 |